This is the latest recevied weather packets stored in our database for station/object SQ6XL-13. If no packets are shown the sender has not sent any weather packets the latest 1 day(s).
| Time | Temp. | Humidity | Pressure | Rain* | Wind** | Luminosity | Snow |
|---|---|---|---|---|---|---|---|
| 1778012717 | 16.11° C | 85% | 1006.8 hPa | 0 mm | - | - | - |
| 1778012127 | 16.11° C | 84% | 1007 hPa | 0 mm | - | - | - |
| 1778011632 | 16.11° C | 84% | 1006.9 hPa | 0 mm | - | - | - |
| 1778011052 | 16.11° C | 85% | 1006.7 hPa | 0 mm | - | - | - |
| 1778010552 | 16.11° C | 84% | 1006.7 hPa | 0 mm | - | - | - |
| 1778009987 | 16.11° C | 84% | 1006.6 hPa | 0 mm | - | - | - |
| 1778009457 | 16.11° C | 84% | 1006.7 hPa | 0 mm | - | - | - |
| 1778008912 | 16.67° C | 83% | 1006.7 hPa | 0 mm | - | - | - |
| 1778008342 | 16.67° C | 82% | 1006.6 hPa | 0 mm | - | - | - |
| 1778007804 | 16.67° C | 81% | 1006.6 hPa | 0 mm | - | - | - |
| 1778007272 | 17.22° C | 80% | 1006.6 hPa | 0 mm | - | - | - |
| 1778006677 | 17.22° C | 79% | 1006.6 hPa | 0 mm | - | - | - |
| 1778006082 | 17.78° C | 77% | 1006.7 hPa | 0 mm | - | - | - |
| 1778005557 | 17.78° C | 77% | 1006.7 hPa | 0 mm | - | - | - |
| 1778005032 | 18.33° C | 74% | 1006.6 hPa | 0 mm | - | - | - |
| 1778004547 | 18.89° C | 71% | 1006.6 hPa | 0 mm | - | - | - |
| 1778003947 | 19.44° C | 62% | 1006.6 hPa | 0 mm | - | - | - |
| 1778003412 | 19.44° C | 59% | 1006.5 hPa | 0 mm | - | - | - |
| 1778002882 | 20° C | 59% | 1006.3 hPa | 0 mm | - | - | - |
| 1778002307 | 20° C | 57% | 1006.2 hPa | 0 mm | - | - | - |
| 1778001807 | 20.56° C | 56% | 1006.2 hPa | 0 mm | - | - | - |
| 1778001322 | 20.56° C | 55% | 1006.2 hPa | 0 mm | - | - | - |
| 1778000742 | 20.56° C | 55% | 1006.3 hPa | 0 mm | - | - | - |
| 1778000237 | 21.11° C | 56% | 1006.2 hPa | 0 mm | - | - | - |
| 1777999752 | 20.56° C | 57% | 1006.1 hPa | 0 mm | - | - | - |
* Rain latest hour (hover to see other rain measurements)
** Current wind speed in m/s (hover to see current wind gust speed)